Wind_Gust
14 14 14 14 13 13 13 13 13 13 14 14 14 14 14 14 14 15 15 15 16 16 17 16 16 17 16 17 18 18 16 18 17 12 9 18 11 9 14 4 15 19 10 14 16 19 11 11 11 5 10 7 6 11 6 6 6 8 12 9 13 13 11 10 14 16 8 10 14 17 12 16 20 19 13 10 8 8 7 9 9 9 8 8 14 23 27 27
15 15 15 15 14 14 14 13 13 13 14 14 14 15 15 15 15 15 16 16 16 16 17 17 17 17 18 17 18 17 16 12 16 15 26 14 7 11 12 4 12 18 13 16 20 13 20 10 9 10 13 10 7 9 6 12 7 9 8 9 22 10 10 11 9 8 10 15 16 13 7 9 15 10 12 16 10 6 8 8 8 7 11 16 21 26 28 27
15 15 15 15 15 15 14 14 14 13 14 14 14 14 15 15 15 16 16 16 17 17 17 18 18 18 18 18 17 14 15 12 10 8 8 11 22 14 12 9 11 17 14 14 10 16 19 19 16 14 7 11 5 10 6 10 10 7 11 17 18 8 6 9 9 9 8 11 16 17 13 12 14 7 9 10 13 8 13 9 7 10 10 16 22 25 26 26
16 16 16 16 15 15 15 15 14 14 14 14 14 15 15 15 15 16 16 17 17 17 18 18 18 19 19 18 18 16 9 9 6 4 6 8 7 12 14 13 14 17 7 9 10 10 11 15 12 11 9 9 7 5 15 10 15 10 11 22 12 10 7 6 8 10 11 7 13 13 13 18 9 9 9 9 18 10 9 10 13 15 15 18 23 25 26 25
16 16 16 16 16 16 16 16 15 15 15 14 14 15 15 16 16 16 16 16 17 17 17 17 18 18 19 18 18 9 8 5 9 6 6 10 8 13 16 15 19 17 6 14 15 12 16 17 14 7 9 12 6 9 9 8 7 12 19 9 12 7 8 6 11 9 10 5 9 10 16 18 15 8 7 10 11 18 10 8 16 13 18 22 24 25 24 23
16 17 17 17 16 16 17 17 16 16 16 16 15 15 16 16 17 16 16 15 17 17 17 17 17 18 18 18 9 6 6 7 6 7 9 8 8 17 16 16 20 14 12 11 11 14 18 9 15 14 11 9 14 16 8 9 8 16 16 12 8 11 13 7 9 10 5 12 13 13 9 13 12 18 10 11 15 13 8 7 14 16 19 21 21 23 22 21
17 17 17 17 17 17 17 17 17 17 17 17 16 16 16 16 16 17 17 17 15 16 17 17 17 18 18 12 6 5 6 20 8 6 10 8 14 17 17 19 20 13 9 15 15 17 9 14 9 9 11 8 6 8 10 11 8 13 20 9 5 7 10 9 15 9 11 6 13 6 11 13 13 19 7 12 17 15 10 9 13 17 20 20 22 21 21 20
17 17 17 17 17 17 17 17 17 17 17 17 17 16 16 16 16 16 17 16 15 15 16 16 16 15 15 9 5 8 5 16 14 7 8 12 18 19 18 14 13 10 11 15 16 12 15 18 17 10 9 14 10 14 9 9 9 21 21 5 9 9 10 10 10 11 12 12 12 9 11 15 5 13 13 16 18 6 8 9 15 18 20 19 20 20 18 18
17 17 18 18 18 18 18 18 18 17 17 17 17 17 17 16 16 16 16 16 15 14 14 14 14 14 7 8 7 11 11 10 6 7 7 12 11 15 15 19 6 11 9 9 7 16 16 10 9 11 10 11 8 16 8 13 17 15 16 9 12 15 12 8 11 14 15 10 8 7 15 11 9 6 12 19 12 7 11 14 19 21 21 20 20 21 19 18
17 17 18 18 18 18 18 18 18 17 18 17 17 18 17 17 17 16 16 16 15 13 13 13 12 12 7 5 5 10 10 4 5 8 10 13 12 12 9 11 12 13 13 7 9 12 10 13 12 11 10 8 12 11 8 12 10 8 10 12 14 13 8 7 10 12 7 9 9 12 16 9 5 5 16 7 7 12 15 17 18 21 22 20 19 20 21 24
17 18 18 18 18 18 18 18 18 18 18 18 18 18 18 18 18 17 16 16 15 14 13 11 10 10 6 5 4 12 8 5 5 9 13 13 13 12 11 13 11 12 10 7 8 7 6 12 8 10 6 10 13 6 11 10 5 7 9 7 10 10 9 11 8 16 8 14 12 14 11 5 6 6 17 9 10 12 18 17 17 19 20 18 21 22 19 20
18 18 18 18 19 19 19 19 19 19 18 18 18 18 18 19 19 19 18 16 16 14 10 9 8 7 5 6 10 19 4 5 8 9 12 14 13 9 10 13 14 13 13 12 9 7 7 7 10 9 8 10 13 8 9 7 7 6 5 14 9 10 13 6 11 7 6 15 11 11 9 11 7 12 10 10 9 13 16 18 19 20 21 19 22 21 16 17
18 18 18 18 18 19 19 19 19 19 19 19 19 19 19 19 21 20 19 16 14 11 7 5 5 5 5 8 19 13 5 10 10 6 8 6 6 5 9 11 12 11 12 11 9 10 9 8 5 9 6 9 9 8 9 6 6 7 6 6 10 10 12 6 7 6 7 13 7 9 19 7 9 17 12 10 12 13 16 19 20 21 19 18 20 19 15 18
19 19 19 18 18 19 19 19 19 20 20 20 20 20 21 22 22 21 18 14 11 8 8 6 9 7 6 15 19 8 9 5 4 9 13 6 6 8 5 6 6 5 5 8 6 6 9 7 6 5 6 6 6 6 6 9 8 10 7 6 7 10 11 8 7 7 9 6 6 9 17 14 12 14 10 7 13 17 17 18 20 21 18 18 19 19 19 16
20 20 19 19 19 19 19 20 20 20 20 20 21 21 22 23 22 18 14 9 7 7 9 10 7 7 5 22 12 15 11 6 8 17 11 14 13 6 8 8 8 7 5 6 5 5 7 9 5 9 10 5 5 5 6 8 9 7 9 11 7 9 8 18 9 5 9 8 8 10 10 13 13 15 12 7 12 13 15 17 20 21 20 18 19 18 20 18
20 20 20 20 19 20 20 20 20 20 20 21 21 23 23 20 18 10 5 7 7 11 14 8 6 6 6 21 7 10 11 6 9 13 13 15 15 12 8 11 9 8 7 5 5 7 8 11 9 10 6 5 6 6 7 8 8 9 10 7 8 7 8 11 7 6 6 6 9 8 11 10 10 9 11 7 14 15 14 17 18 19 21 20 21 18 20 20
20 20 21 20 20 20 21 21 21 21 20 21 24 21 19 14 9 9 11 11 10 10 7 7 8 8 8 9 6 5 7 9 4 6 6 12 12 12 18 13 11 10 5 7 6 5 5 11 6 9 8 7 6 9 7 11 11 8 7 10 6 10 6 9 12 8 12 11 9 11 8 11 17 10 8 7 14 16 17 18 20 21 22 20 21 18 21 22
20 21 21 21 20 21 22 22 22 22 21 22 23 17 14 11 7 10 11 9 8 7 6 7 8 8 23 7 10 6 4 6 6 6 6 7 11 12 9 10 10 12 10 8 6 11 6 10 7 12 6 6 9 11 18 15 13 11 9 9 10 8 9 9 8 7 15 7 11 6 11 16 18 14 10 11 13 18 20 19 20 21 22 22 23 25 21 21
20 20 21 21 20 21 22 22 22 22 21 21 20 11 7 5 6 5 12 6 7 6 9 11 10 13 12 6 7 8 6 6 6 7 7 12 8 7 8 10 18 19 10 9 7 7 8 8 8 9 17 15 16 15 14 6 10 10 8 6 7 12 9 8 9 12 7 15 18 15 16 15 16 17 10 12 13 20 23 13 18 20 22 21 23 27 28 24
20 20 20 20 20 20 21 22 21 21 23 19 16 7 5 6 8 8 5 5 13 13 8 8 15 9 15 10 11 9 7 6 5 5 8 7 20 10 7 9 8 9 12 16 9 8 10 14 17 20 15 9 9 12 13 10 10 9 7 6 11 12 13 6 8 12 7 12 16 17 11 11 16 18 16 8 9 15 19 16 19 21 23 24 23 27 28 26
21 20 20 20 20 21 21 22 22 22 22 15 9 7 5 6 6 11 11 18 14 11 15 15 23 19 23 11 7 11 11 8 6 4 7 9 11 21 12 9 9 11 7 7 12 7 8 15 14 10 12 14 14 12 9 9 4 8 9 9 16 9 16 7 12 9 6 10 13 7 9 14 18 18 14 6 8 17 21 21 22 24 26 27 24 24 25 23
20 20 21 21 21 21 22 22 22 23 8 6 6 5 5 6 6 5 6 21 8 17 17 21 7 22 17 11 6 6 7 11 14 14 7 11 14 19 7 11 10 17 7 9 9 11 13 18 14 11 10 10 10 10 9 11 8 6 11 9 13 14 9 11 11 10 8 11 18 6 11 17 21 20 10 10 16 19 18 20 26 29 28 28 28 27 23 18
20 20 20 21 21 22 23 22 23 9 6 6 7 6 7 5 7 7 4 12 21 9 13 11 13 20 18 8 12 13 11 17 22 7 16 12 10 11 17 15 13 9 8 9 17 10 13 17 12 10 11 12 8 9 10 8 6 9 8 10 20 7 11 13 7 7 9 11 11 9 16 21 19 11 11 11 13 13 9 9 14 25 29 31 32 31 31 26
20 20 21 21 22 22 22 24 10 6 6 7 9 10 6 8 9 10 7 14 16 12 12 13 15 9 13 12 16 20 17 16 11 14 10 22 18 9 17 17 12 12 17 15 16 17 12 7 7 13 13 14 11 8 10 11 13 7 11 13 16 7 11 15 12 8 9 11 8 14 16 19 10 12 9 8 8 11 11 14 16 23 27 27 27 26 30 31
20 19 20 21 21 23 24 16 7 7 12 9 10 10 10 9 6 6 7 15 8 15 5 4 8 13 13 4 11 22 11 7 18 7 17 21 13 16 14 12 15 16 15 10 9 11 13 12 9 14 8 7 11 9 11 11 13 8 11 16 14 12 15 14 6 10 12 11 7 7 12 14 7 10 13 14 13 12 9 14 21 24 28 27 25 28 28 26
19 19 19 20 21 23 21 5 5 12 13 9 7 6 8 9 7 6 8 9 12 11 6 5 10 9 13 7 12 8 10 17 13 15 14 16 17 17 15 14 16 21 13 14 13 15 14 9 14 13 12 10 12 12 8 13 12 7 13 19 22 19 14 9 8 6 10 10 9 6 11 16 9 13 11 14 16 14 12 14 18 21 26 30 30 30 31 30
19 19 19 19 18 19 12 7 7 14 6 7 6 10 10 10 6 7 10 13 7 7 7 6 9 14 11 8 17 7 12 11 7 10 15 11 21 6 20 14 9 8 11 12 11 20 10 7 9 7 10 11 9 14 12 17 12 14 8 10 9 10 12 14 14 15 14 9 11 8 15 19 21 12 8 13 18 17 11 10 13 18 22 27 26 24 23 27
20 19 18 18 16 12 10 18 15 9 10 7 8 11 11 9 7 7 10 7 12 4 7 5 7 9 8 5 9 14 6 7 5 7 6 4 7 6 11 17 22 16 12 13 21 8 10 12 13 12 9 11 16 17 11 16 17 11 6 12 12 14 12 10 13 11 8 8 16 8 9 12 15 12 8 11 16 16 13 9 10 13 16 19 21 20 20 23
19 19 18 17 17 17 13 13 8 14 7 6 11 12 13 6 9 8 9 9 11 9 11 10 10 6 7 7 10 13 9 6 7 6 4 5 7 11 20 14 12 13 8 18 19 7 7 14 18 16 17 17 14 10 18 20 18 11 11 8 9 9 8 10 10 11 8 9 15 9 10 15 16 11 9 8 9 14 14 18 14 11 14 17 20 15 15 12
20 18 18 18 16 11 6 7 18 11 8 13 13 13 8 7 8 8 9 10 13 5 8 8 8 10 6 7 10 9 13 9 4 6 8 16 11 7 9 7 14 13 12 7 8 9 6 6 8 12 20 19 14 9 15 22 13 10 13 10 8 10 8 8 8 7 9 8 19 9 12 12 17 7 9 7 11 13 21 17 16 13 12 14 13 12 7 11
20 19 18 16 14 9 7 11 15 12 11 10 14 8 6 15 10 8 5 13 10 8 10 9 8 5 8 9 12 8 8 7 6 14 12 7 10 7 11 14 10 11 7 5 13 8 5 6 7 12 6 7 7 9 6 7 6 6 6 7 9 8 9 7 6 7 8 17 9 9 11 12 17 8 8 10 12 13 16 19 19 14 8 9 8 10 11 10
21 21 21 19 16 12 11 11 5 6 7 13 11 7 8 8 9 9 12 7 10 11 7 12 6 11 11 6 7 6 11 7 10 15 19 21 20 23 20 19 21 15 11 12 16 8 10 16 9 8 7 12 9 10 9 8 8 12 9 7 9 8 7 9 11 10 15 18 10 8 9 8 21 11 12 14 17 17 16 17 15 10 8 13 17 16 15 19
20 23 26 23 16 17 24 21 9 12 15 14 7 9 11 10 10 11 11 11 7 8 11 5 13 17 13 10 6 7 5 7 8 10 9 7 15 12 9 8 12 15 13 8 8 6 12 8 8 11 7 13 13 20 12 10 15 15 17 15 14 12 8 6 8 7 13 14 8 7 8 14 9 10 14 14 15 15 15 15 11 17 20 19 22 21 19 21
24 27 25 15 16 22 15 10 12 9 7 5 7 11 14 9 12 6 4 6 8 6 8 9 16 12 5 4 7 8 8 4 11 13 13 11 14 15 13 6 9 9 9 6 15 13 10 11 17 15 14 14 23 22 19 9 18 21 7 21 13 17 18 12 16 15 16 11 7 8 12 13 13 11 11 12 13 16 17 19 20 19 19 19 18 19 18 16
26 23 15 11 12 19 20 16 6 6 5 6 15 14 13 17 7 6 5 8 9 9 9 8 10 7 8 7 6 7 5 8 7 12 13 16 15 15 18 18 7 9 8 13 7 7 11 15 12 12 6 11 20 14 11 12 10 7 8 9 10 14 13 14 7 10 8 8 6 12 12 6 9 9 8 7 17 17 16 19 19 15 15 17 17 15 14 17
19 10 5 8 8 6 15 18 11 4 5 10 13 8 10 9 5 7 6 7 5 10 16 14 7 7 6 8 6 8 6 5 6 7 6 10 7 17 8 10 20 17 16 19 11 11 7 11 5 9 7 13 13 13 14 15 16 15 13 17 12 9 13 14 5 9 3 7 10 6 13 9 11 11 12 12 16 18 16 16 16 13 12 15 17 17 16 15
15 15 5 6 6 7 13 16 16 10 9 14 12 9 10 8 9 9 5 5 7 6 6 10 9 6 8 9 7 11 9 7 7 9 12 5 8 11 10 9 6 10 12 17 8 9 9 10 6 7 12 8 7 6 5 6 10 20 16 15 10 7 9 11 12 6 5 12 12 7 5 10 10 14 9 15 15 14 16 15 15 15 13 14 13 14 15 17
14 10 8 6 6 9 14 16 15 7 10 8 7 6 6 6 6 5 4 4 5 5 6 5 12 4 6 7 9 9 11 6 8 7 8 8 14 6 8 13 10 18 17 6 14 8 8 14 11 7 7 5 7 9 11 5 7 9 7 11 17 9 10 7 10 7 6 8 10 7 7 10 11 8 9 13 14 14 14 13 14 15 15 15 13 14 15 13
8 7 9 7 6 11 13 15 5 6 8 8 7 6 7 9 5 7 6 4 6 5 5 8 7 7 6 7 8 7 8 7 5 4 10 8 11 5 7 9 11 7 5 12 16 11 6 9 13 6 8 8 7 7 10 12 6 7 7 12 8 9 6 14 14 9 10 6 4 7 7 10 10 8 10 9 9 8 14 15 16 16 15 14 13 14 14 14
5 7 8 5 9 9 13 6 6 11 9 5 7 9 5 6 6 8 7 5 7 8 8 5 6 8 7 8 6 10 7 6 6 6 7 12 12 4 5 5 4 6 4 12 12 7 10 5 9 7 8 7 13 7 7 11 15 11 12 9 9 8 7 11 8 7 13 12 9 7 9 11 10 8 7 7 6 7 8 14 12 15 16 15 14 13 13 14
7 9 7 6 8 12 8 7 12 7 6 5 5 5 4 7 7 6 6 6 9 7 10 6 5 7 6 11 9 5 8 6 6 5 8 5 11 12 6 5 4 4 7 8 10 9 14 8 14 10 12 8 9 6 7 8 6 7 13 18 17 17 15 13 12 8 7 12 11 10 12 10 11 7 8 7 6 6 5 8 12 11 15 16 15 16 17 14
6 10 4 6 10 8 5 6 7 5 6 5 4 7 7 6 6 7 6 6 8 11 5 7 7 11 9 11 12 6 8 9 6 6 6 8 5 9 7 5 5 6 10 13 13 8 10 11 8 7 10 5 5 7 6 8 9 7 7 6 7 7 9 16 17 10 7 7 8 8 5 7 8 8 9 10 11 11 11 12 8 6 12 16 16 13 17 14
9 8 6 8 9 5 8 7 5 4 4 6 7 7 5 6 6 7 7 6 7 6 6 9 11 9 10 11 6 8 7 10 7 6 4 5 5 8 7 8 6 7 7 7 5 8 7 10 11 7 8 10 10 8 6 6 6 8 10 8 6 11 6 10 11 11 14 10 10 7 10 11 7 12 10 12 14 15 14 13 14 15 15 17 18 15 15 15
8 9 8 6 4 5 6 4 3 4 8 7 5 8 4 6 5 6 7 6 8 5 7 7 6 9 9 5 7 9 6 7 5 6 5 5 5 4 7 4 4 7 6 8 8 8 16 7 9 8 9 10 7 8 6 6 9 9 6 8 8 7 7 5 10 6 9 11 8 13 14 8 8 10 11 14 17 17 17 16 15 15 16 16 16 15 14 14
13 7 7 6 10 5 4 8 7 3 4 5 7 9 11 6 6 9 6 7 4 6 4 8 7 6 9 4 8 8 9 13 11 5 5 5 8 6 8 10 6 8 6 6 6 7 7 6 9 10 13 13 12 11 12 9 6 9 6 11 11 10 7 10 8 10 14 9 8 9 9 8 8 11 12 16 18 19 17 17 17 16 14 15 15 16 15 16
8 11 8 6 11 7 8 5 5 6 4 4 4 5 5 9 7 4 7 8 8 7 9 9 7 5 6 6 7 6 6 6 8 7 6 7 10 9 12 18 7 9 10 16 13 9 10 7 7 7 12 15 9 7 6 6 6 8 9 13 15 11 10 7 8 9 17 10 10 8 8 15 13 13 12 15 16 15 15 16 17 15 16 17 16 17 17 16
8 10 8 6 6 9 4 6 6 5 3 7 6 6 7 6 9 10 7 6 5 5 6 4 7 7 7 6 5 6 5 7 8 7 9 6 6 9 19 11 10 9 13 13 15 18 9 11 8 11 14 8 7 7 5 7 9 9 11 13 14 15 11 7 9 12 10 19 10 8 12 19 12 12 12 14 14 16 15 16 15 16 17 17 17 17 16 18
6 4 6 5 8 5 5 3 5 5 6 4 5 4 6 7 9 7 7 5 6 4 5 6 9 9 6 7 5 5 10 7 8 5 8 7 7 11 15 15 13 14 10 9 6 11 12 9 9 8 10 10 9 9 12 17 16 14 14 15 17 16 14 9 9 8 10 9 11 16 16 13 9 11 13 13 13 17 16 16 15 16 17 17 18 19 19 19
7 8 5 5 6 5 5 4 5 6 8 6 5 5 6 5 8 5 5 10 8 6 8 3 10 15 11 6 7 5 6 4 3 6 7 9 7 7 10 15 14 15 12 8 9 8 14 8 6 7 12 11 12 10 8 17 13 15 17 16 15 16 16 14 14 12 7 7 15 23 18 16 11 13 13 12 12 16 17 16 17 19 20 20 20 21 21 22
8 7 5 8 11 7 5 5 6 7 6 8 4 5 5 5 7 9 6 5 6 6 5 7 11 12 11 7 5 8 6 7 7 4 5 5 6 8 5 11 16 12 11 7 5 4 6 7 7 6 8 4 10 9 9 10 11 18 17 17 16 13 15 15 13 14 14 18 18 19 18 13 11 12 14 14 15 16 18 21 21 19 19 19 21 21 20 20
4 4 8 13 7 7 6 7 6 5 5 8 8 5 5 5 6 6 8 6 5 5 6 7 6 11 7 9 7 8 5 7 8 8 10 7 5 8 6 8 10 13 15 6 7 6 9 7 5 6 7 5 7 10 7 9 13 16 17 20 18 15 12 12 9 9 8 11 16 17 13 11 10 14 16 17 19 21 21 19 19 19 18 18 21 21 20 20
5 4 6 11 9 8 5 5 5 6 5 5 4 6 5 7 5 6 6 5 6 6 6 6 7 7 10 10 9 6 9 12 13 13 10 9 9 7 7 7 7 12 14 7 6 7 7 17 11 7 9 6 6 8 8 7 7 6 11 15 14 8 6 7 9 13 9 9 13 10 9 12 13 13 19 17 18 18 20 20 19 20 20 20 20 20 21 21
Wind_Speed
11 11 11 10 10 10 10 10 9 9 8 8 9 9 9 9 9 10 10 10 10 11 11 12 12 12 12 13 13 14 12 9 10 5 4 10 5 6 10 2 12 14 6 8 10 12 6 7 6 1 4 2 1 4 1 1 1 2 4 2 5 5 4 3 6 6 3 3 7 10 7 9 12 11 6 4 2 3 2 2 2 2 2 2 7 15 17 17
11 11 11 11 11 10 10 10 10 9 9 8 9 8 9 9 9 9 10 10 10 11 11 12 12 12 13 13 13 13 10 7 9 8 15 7 5 8 9 2 9 13 9 10 13 8 13 5 5 5 6 4 2 2 1 3 2 3 2 2 10 2 1 4 1 1 4 8 10 7 2 5 9 5 5 7 5 1 3 1 3 2 5 9 13 16 18 18
11 11 11 11 11 11 11 11 11 10 9 9 9 9 9 9 9 10 10 10 11 11 11 12 12 13 13 13 13 10 9 5 5 2 2 8 16 11 9 6 9 12 8 8 5 10 11 12 9 8 2 4 0 4 1 3 3 1 4 6 7 2 1 3 3 4 4 6 9 10 7 6 8 2 3 5 8 4 7 3 1 4 5 10 14 16 17 17
12 12 12 12 12 11 11 11 11 11 11 10 10 9 9 9 10 10 11 11 11 11 11 12 12 13 13 14 13 10 4 4 1 1 2 5 6 8 12 10 10 12 3 4 4 5 6 9 7 5 3 3 2 0 6 3 4 3 3 8 1 3 2 2 3 5 6 2 7 7 8 11 3 4 3 4 10 5 4 4 6 7 8 11 15 16 16 16
12 12 12 12 12 12 12 12 12 12 12 11 11 10 10 10 10 10 10 10 11 11 11 12 12 13 13 13 12 4 3 1 3 2 2 8 7 10 13 12 14 11 1 8 9 7 10 11 7 2 2 4 2 4 3 3 2 4 9 2 6 2 2 0 6 5 5 1 4 6 10 10 9 3 3 5 5 8 4 2 8 6 11 14 16 16 14 15
12 12 12 12 12 12 12 12 12 12 12 12 12 11 11 10 10 11 11 10 10 11 11 12 12 13 14 13 4 1 2 1 1 3 8 7 5 12 13 12 15 9 6 7 5 9 11 5 8 6 3 3 7 7 2 4 3 6 8 7 3 5 7 2 4 6 2 5 8 7 4 6 7 10 5 5 8 7 2 1 5 7 10 13 14 14 14 14
12 12 12 12 12 13 13 12 12 12 12 12 12 12 11 11 10 10 10 10 10 10 11 12 12 12 13 7 1 1 2 7 4 1 8 5 11 13 13 14 15 8 5 9 9 8 6 9 4 5 5 3 2 1 5 6 3 6 7 4 1 3 5 4 9 5 6 3 7 2 7 7 7 11 2 6 11 9 5 3 6 9 11 13 14 14 14 13
12 12 12 12 13 13 13 13 13 13 13 13 12 13 12 12 11 11 11 10 10 10 10 11 11 11 12 4 0 2 1 6 6 2 6 9 13 14 14 9 9 6 6 10 10 7 9 11 10 4 3 5 4 7 4 5 5 11 10 0 4 5 5 5 5 6 6 7 6 5 6 9 1 7 7 10 9 2 2 3 7 11 12 12 13 13 12 12
13 13 13 13 13 13 13 13 13 13 13 13 13 13 13 13 12 12 10 10 9 9 9 10 10 10 4 2 3 5 3 5 2 4 4 8 8 10 11 9 3 7 4 3 2 10 10 5 5 5 4 5 3 10 3 7 7 7 10 4 7 9 7 3 6 9 9 3 3 3 9 6 4 2 6 12 5 2 6 8 11 13 13 13 13 14 12 12
12 13 13 13 13 13 13 14 13 13 13 13 13 13 13 13 13 12 12 10 9 8 9 9 8 8 3 1 1 3 3 1 2 3 6 9 8 8 5 6 8 8 7 3 4 8 5 5 6 6 4 4 7 5 4 7 1 3 6 7 9 7 3 2 5 7 1 3 5 6 10 4 1 1 6 3 2 6 9 10 11 13 14 13 13 12 12 12
13 13 13 13 13 13 13 14 14 14 13 13 14 14 14 14 14 14 12 11 10 9 8 6 6 6 1 1 1 5 1 2 1 4 9 9 10 7 7 7 7 6 5 3 4 4 2 7 3 4 1 2 7 2 5 4 1 2 4 3 6 5 4 6 4 10 3 6 7 9 6 1 2 0 8 4 3 5 10 10 11 12 12 11 14 13 9 9
14 14 14 14 14 14 14 14 14 15 14 14 14 14 14 15 15 15 14 13 11 8 5 6 5 1 0 1 5 7 0 2 3 4 7 10 7 3 6 8 9 8 8 7 5 3 3 3 5 3 1 4 5 3 3 2 2 2 0 7 3 3 5 2 5 1 2 6 7 6 4 5 3 6 3 5 3 5 9 11 12 13 12 12 14 11 7 9
13 14 14 14 14 14 14 14 15 15 15 15 15 15 14 15 16 16 15 12 9 6 3 1 2 0 1 3 8 4 1 5 5 3 4 1 1 1 4 6 7 5 5 6 4 5 5 4 1 4 2 3 4 1 3 1 2 3 2 1 5 4 5 1 2 1 3 4 3 4 7 1 3 10 5 5 4 7 8 11 12 12 10 10 13 9 6 7
14 14 14 14 14 14 14 14 15 15 15 16 16 15 16 17 17 16 14 11 7 4 5 4 3 1 1 5 5 2 4 1 1 4 6 2 2 3 1 2 1 1 2 3 2 2 5 2 2 1 2 2 1 2 1 1 1 3 2 1 1 3 2 1 2 2 4 2 2 4 7 6 4 6 4 2 7 9 8 10 12 12 10 10 11 10 10 9
14 15 15 15 15 14 14 14 14 15 16 16 16 17 17 18 16 14 11 6 4 5 6 7 2 3 1 7 5 8 6 2 4 10 6 8 8 2 4 4 4 3 0 2 2 1 3 5 1 4 3 1 1 2 1 2 3 2 2 3 1 3 0 9 4 1 4 3 3 5 3 4 6 6 6 1 6 7 7 9 11 12 10 10 10 10 11 9
14 15 15 15 15 15 15 15 15 15 16 17 17 18 17 14 12 5 3 5 4 8 7 4 1 1 1 6 3 6 6 3 4 7 6 10 10 7 4 6 5 4 3 2 1 2 3 6 3 2 1 1 2 0 1 1 1 2 3 3 2 1 2 4 3 1 1 1 5 3 3 4 3 4 5 1 7 8 7 10 10 12 13 12 11 9 11 10
14 14 15 15 15 15 15 16 15 16 16 17 19 17 13 9 3 6 8 8 5 4 2 2 3 2 2 1 2 2 3 4 1 2 2 7 8 7 11 8 5 5 2 3 2 1 2 5 1 2 3 1 1 2 2 4 4 2 1 3 1 4 1 2 2 3 7 6 3 4 3 5 9 5 3 2 7 8 9 10 12 12 12 12 12 10 12 11
15 15 15 15 16 16 16 16 16 16 17 17 18 14 8 8 5 8 8 5 2 2 1 1 3 2 6 2 4 2 1 2 2 2 3 2 7 8 5 4 5 7 5 4 2 5 1 3 1 4 2 2 4 4 7 6 4 4 4 3 3 2 4 3 2 1 8 2 6 1 5 9 10 8 4 6 6 9 9 10 11 12 13 12 13 13 12 11
15 15 15 15 16 16 17 17 17 17 17 17 16 8 5 1 1 1 5 1 2 1 1 2 3 4 2 2 2 4 2 2 1 3 3 7 4 3 4 5 11 12 4 3 2 3 2 2 1 3 7 7 7 7 6 2 3 4 3 1 2 5 2 2 2 6 2 8 9 9 7 7 9 10 4 4 6 9 9 7 10 11 12 12 13 15 15 12
15 15 16 16 16 16 16 17 16 16 18 13 7 2 1 1 1 2 1 1 5 6 2 2 6 4 8 5 4 4 3 2 2 2 4 3 10 6 3 4 3 2 5 6 4 3 2 6 7 9 7 4 5 7 8 4 4 4 2 2 5 5 6 1 4 6 3 5 8 9 6 6 9 11 9 2 2 7 8 9 11 12 13 14 13 16 17 16
15 15 15 15 15 16 17 17 17 17 16 8 4 2 1 2 1 3 4 9 7 6 9 8 13 11 8 6 3 6 5 3 3 1 3 4 6 13 4 4 4 5 2 2 5 2 3 6 7 4 7 9 9 7 4 5 0 3 4 4 7 4 7 2 6 4 1 4 6 2 4 8 11 11 7 1 3 9 11 12 13 15 16 15 15 15 16 14
16 16 16 15 15 16 17 17 17 18 5 1 1 1 1 2 2 2 1 6 3 9 10 12 3 13 3 4 3 3 3 4 8 8 1 6 7 8 2 5 4 8 3 4 4 4 5 8 7 6 4 5 5 5 5 7 4 2 4 3 6 6 2 6 5 5 2 5 8 1 5 9 12 12 5 4 9 10 8 12 15 16 17 16 16 17 15 11
15 16 15 16 16 17 18 17 15 6 1 1 2 1 2 2 3 2 0 4 9 2 5 5 7 12 8 3 5 8 6 9 9 2 7 7 6 5 9 7 7 3 3 4 8 4 5 8 7 5 6 7 4 4 6 4 2 4 3 4 8 2 4 3 2 2 4 3 4 4 8 10 11 5 6 4 6 6 3 3 8 14 17 18 19 19 18 16
15 15 16 16 16 17 17 17 5 1 1 3 4 5 1 3 4 5 3 4 6 5 6 6 9 4 6 4 6 12 11 5 4 8 5 10 8 5 7 10 7 5 8 9 10 8 4 3 3 8 8 9 6 4 6 5 5 3 6 6 7 2 5 6 3 2 4 6 3 8 7 8 4 5 2 3 2 5 5 7 9 13 16 16 15 15 17 20
15 15 15 16 16 17 18 12 2 2 6 4 4 5 5 4 2 2 2 4 2 5 2 1 3 6 5 2 5 10 5 1 11 1 7 12 6 7 6 3 5 7 9 6 4 5 6 3 5 8 4 4 6 4 6 5 6 3 7 10 9 8 9 8 1 4 4 4 2 2 3 5 1 3 6 4 4 4 3 7 13 15 17 16 14 16 17 17
15 15 15 15 16 17 16 1 1 5 6 3 2 2 3 4 3 2 1 3 4 2 1 1 3 2 4 3 6 3 6 6 6 6 6 7 8 6 5 4 3 11 8 8 5 3 5 5 8 8 7 6 7 6 4 8 5 2 4 12 14 12 8 3 3 1 3 3 3 2 4 3 1 6 5 4 6 8 5 7 10 12 14 16 16 16 17 17
15 15 15 14 14 15 5 0 2 8 3 2 2 4 4 4 3 3 2 2 1 2 2 1 3 2 2 4 8 3 5 2 3 5 8 5 11 1 10 6 2 4 4 3 2 6 4 3 5 3 5 5 4 6 5 10 5 4 1 4 5 5 7 8 8 7 5 4 4 3 5 7 8 4 2 5 9 9 5 5 6 9 12 15 15 14 14 15
15 15 14 14 12 9 4 7 8 3 4 3 3 5 5 4 2 0 0 1 0 1 2 2 2 2 1 1 5 6 2 3 1 2 2 0 2 1 4 10 12 9 5 5 9 2 6 6 8 7 5 4 7 9 6 10 6 2 2 6 7 8 6 4 5 4 2 2 6 2 4 3 5 3 1 3 8 7 3 3 1 4 7 10 13 11 12 13
15 15 14 13 13 12 7 5 3 7 2 2 5 6 5 2 2 2 1 1 1 2 2 3 2 0 2 3 5 7 4 2 3 2 0 2 3 2 7 8 5 8 5 10 8 3 2 7 11 10 8 7 7 4 11 12 8 4 5 3 4 4 3 5 3 4 3 3 6 3 4 5 6 3 2 1 3 7 7 10 7 3 4 6 9 8 7 6
15 15 14 14 11 5 2 3 9 5 3 6 6 7 4 2 1 0 2 3 4 1 2 2 2 4 2 2 4 5 7 2 1 2 4 4 6 3 5 2 6 7 6 2 3 1 2 2 2 4 9 9 8 3 8 14 7 5 8 5 3 3 2 2 1 1 3 2 8 4 7 5 6 2 3 1 4 5 10 8 8 7 1 3 5 5 2 3
16 15 14 12 6 3 2 4 7 6 5 4 8 3 2 4 2 3 3 2 3 2 2 4 2 1 3 5 4 1 4 3 0 8 5 1 5 2 4 6 4 4 2 1 5 1 1 3 2 4 2 3 2 4 1 2 2 1 1 1 2 2 1 2 1 1 2 5 1 3 5 7 7 2 2 4 6 7 8 11 10 7 2 3 2 5 7 6
16 16 16 9 7 5 4 3 1 1 2 7 6 1 3 2 3 2 2 2 1 4 3 5 2 3 6 2 3 2 4 3 5 6 9 9 10 10 9 8 7 5 4 5 6 4 5 7 2 4 2 7 4 5 3 3 3 5 3 1 3 1 0 2 3 3 5 5 4 2 4 2 9 3 5 7 8 9 8 7 5 3 2 7 10 10 9 11
15 18 19 12 10 8 13 11 2 6 9 8 2 2 3 2 3 3 2 4 1 3 2 1 6 10 7 6 1 2 1 2 4 5 5 2 7 6 5 1 5 4 4 3 3 1 3 1 1 5 1 6 7 8 4 3 6 7 7 6 5 3 2 1 2 1 4 3 1 2 3 5 3 2 7 7 8 8 8 7 6 9 11 11 13 12 11 12
18 20 12 8 8 10 7 5 5 5 3 2 2 5 6 3 3 1 1 1 3 2 4 3 9 7 1 0 3 4 3 0 6 5 8 4 7 6 5 1 4 4 4 2 5 5 3 4 7 8 5 8 11 10 10 3 9 9 3 9 4 7 5 3 5 5 6 4 2 3 5 3 6 4 5 6 7 8 7 9 9 10 11 10 10 11 10 9
21 16 9 6 5 9 12 9 3 2 1 1 5 3 4 4 1 1 1 2 2 4 4 3 4 3 2 1 3 2 2 2 3 7 6 7 6 5 8 8 3 3 3 4 1 1 6 5 3 6 2 6 12 8 5 6 4 2 1 1 1 4 1 5 0 3 2 2 1 4 2 1 1 2 2 2 9 8 9 11 9 7 8 10 8 7 6 5
14 4 1 3 3 2 8 8 7 1 1 3 4 1 3 2 1 2 2 2 1 4 9 7 3 2 2 3 1 4 2 1 2 1 1 5 2 8 3 2 7 10 6 6 3 3 1 3 0 2 3 8 7 6 6 7 5 5 5 7 4 3 4 5 2 4 1 1 2 2 4 2 3 4 6 6 9 9 9 9 8 6 6 7 7 6 5 6
7 7 1 2 2 2 6 9 7 4 2 4 3 2 2 2 3 4 1 1 3 3 2 4 2 2 3 3 2 5 4 1 2 1 4 1 1 5 3 4 2 5 7 6 1 3 2 1 1 2 8 3 3 2 1 1 3 7 6 4 4 1 3 2 3 1 0 4 2 1 0 2 2 2 3 7 7 8 9 9 9 7 7 8 6 7 6 7
6 4 3 2 2 4 7 9 8 2 3 3 2 1 1 2 1 2 0 1 1 1 2 1 3 1 1 2 2 4 7 0 2 0 3 3 1 3 4 4 6 10 11 1 4 1 3 5 3 3 2 2 2 5 5 1 3 2 2 5 5 2 4 2 1 2 2 1 2 2 1 3 4 2 3 6 7 8 9 8 8 9 9 9 8 9 8 7
3 3 3 3 1 5 7 8 1 1 2 3 1 1 2 3 1 3 2 1 2 2 1 2 2 2 2 2 2 3 3 2 1 0 3 1 3 2 2 1 5 2 0 7 6 3 1 2 3 1 3 3 1 1 3 5 1 3 2 4 3 2 1 4 2 1 2 1 0 1 1 2 2 2 4 4 3 4 8 9 9 9 9 7 7 8 8 8
1 1 3 2 4 4 7 2 1 3 3 1 2 2 0 2 2 4 3 2 1 2 2 2 2 3 2 3 2 4 2 2 1 1 2 3 3 1 2 1 0 2 1 8 5 2 2 0 2 1 3 2 5 1 2 4 6 4 4 2 2 2 2 2 2 1 3 1 2 1 2 2 3 2 1 2 1 2 4 8 7 8 9 8 8 7 7 8
2 1 2 2 4 6 3 1 4 2 2 0 1 1 0 2 3 2 3 3 3 3 4 2 1 2 1 4 2 1 3 1 1 1 2 1 4 2 1 1 1 1 3 3 5 2 2 1 4 2 3 3 2 1 1 2 2 1 5 7 7 8 6 6 4 2 1 3 2 3 3 3 4 2 3 2 1 2 1 4 5 6 8 8 7 9 10 6
0 3 1 2 6 4 1 2 2 1 1 1 0 2 1 2 2 3 2 2 4 3 2 2 3 5 3 5 6 2 3 3 1 1 2 3 1 1 3 1 1 3 3 3 5 2 2 2 2 2 3 1 0 3 2 3 2 2 1 1 1 1 0 6 6 3 1 1 2 1 1 1 2 3 4 4 5 5 5 5 3 2 6 8 8 7 9 7
3 3 3 4 5 1 3 3 1 0 1 0 3 3 1 2 2 1 2 1 2 1 1 3 5 4 5 4 1 3 3 3 2 2 1 1 1 2 3 4 2 3 2 2 1 2 2 1 4 1 2 3 4 1 2 1 2 3 4 3 0 4 0 3 3 4 4 4 3 2 2 2 2 6 5 7 8 8 7 7 8 8 8 9 10 9 8 8
2 3 3 2 0 2 0 0 0 0 2 2 2 3 1 2 1 1 3 1 2 1 2 2 2 5 4 2 2 3 2 2 2 2 1 1 1 1 4 0 1 1 0 2 1 3 2 1 2 2 2 2 2 3 2 2 2 3 1 3 3 2 1 1 3 1 2 4 1 5 4 2 3 4 5 8 10 10 9 9 8 8 7 8 9 9 8 8
4 1 2 2 3 1 0 2 2 0 1 1 3 4 4 2 2 4 2 3 1 2 1 3 2 2 3 0 3 3 4 7 3 2 1 1 2 3 5 7 1 4 2 0 3 2 2 1 2 3 5 5 4 3 4 3 1 2 1 4 5 5 1 4 2 3 4 3 3 2 2 3 3 5 7 10 11 10 9 9 9 9 8 8 8 9 9 9
2 3 3 2 4 2 2 1 0 2 1 1 1 1 1 3 2 1 3 3 4 3 3 4 3 1 2 2 2 2 1 2 3 2 1 2 4 3 6 12 3 3 6 6 7 4 3 2 2 0 3 4 2 2 2 2 1 2 4 7 8 5 5 2 2 2 6 4 4 1 2 7 7 5 7 8 8 8 8 8 8 8 9 10 10 10 10 9
2 3 2 1 1 3 1 1 2 1 0 2 1 2 3 3 4 4 3 2 1 1 1 0 3 3 3 2 1 1 1 3 2 1 4 2 1 2 12 7 6 3 10 6 6 7 2 3 3 5 8 3 2 2 1 2 3 4 5 6 7 8 5 2 3 2 5 7 3 3 7 10 6 7 7 7 8 9 8 8 8 8 9 9 10 10 11 11
1 1 2 1 1 1 1 0 1 2 2 0 1 1 3 3 4 2 2 1 2 1 1 2 3 5 2 3 1 1 4 2 4 1 3 2 1 5 6 9 7 10 4 3 2 5 4 2 1 2 5 5 4 4 7 9 9 7 7 8 10 9 8 4 4 3 6 3 2 9 10 7 4 5 6 7 8 9 9 9 9 9 9 10 10 12 12 11
1 2 1 2 2 1 1 1 2 2 3 1 1 1 2 1 4 1 1 4 2 2 4 1 6 9 6 1 3 1 2 0 1 2 3 5 4 2 3 5 5 9 7 2 3 2 4 2 1 2 7 6 7 5 3 10 7 9 10 10 9 10 9 8 8 6 2 1 8 14 12 10 5 5 6 7 7 10 10 9 10 11 11 11 12 13 13 13
3 2 2 3 4 3 1 1 2 3 2 3 0 1 0 2 3 4 1 1 2 2 1 3 6 7 6 3 1 3 3 3 3 2 1 2 2 3 0 2 2 6 5 2 1 0 1 1 3 1 2 2 5 4 4 5 7 11 10 10 10 7 9 9 7 8 8 11 11 12 12 7 5 7 8 8 8 9 10 13 13 12 11 11 12 13 12 13
0 0 2 5 2 3 2 3 2 2 1 2 2 1 1 1 2 2 4 3 1 2 2 3 1 4 2 4 3 4 1 4 5 4 2 3 0 1 1 1 6 6 8 1 2 1 2 2 1 1 2 1 2 5 3 4 8 10 10 13 11 9 6 6 4 4 4 6 9 10 6 4 4 8 10 10 12 12 12 12 11 11 11 11 12 12 13 13
1 1 1 4 2 3 1 1 1 1 1 1 1 2 0 3 2 2 1 1 2 2 1 3 3 2 4 6 5 3 5 7 8 7 4 4 2 3 1 2 0 1 3 2 1 2 1 7 3 2 3 2 2 3 3 3 2 2 6 8 8 4 2 3 5 8 4 4 6 5 3 5 7 6 10 10 11 12 13 11 11 12 12 12 12 13 12 12
Wind_Direction
351 352 352 352 352 352 353 353 352 357 358 359 356 354 353 351 349 345 344 344 342 339 338 339 337 333 328 325 324 320 329 320 310 296 264 244 209 168 180 2 168 190 205 133 133 126 99 114 109 350 116 149 51 168 114 201 50 195 184 189 229 238 189 171 210 188 55 313 346 337 1 344 333 347 351 276 137 94 127 28 340 7 17 356 105 125 135 138
352 352 352 350 351 351 352 351 351 352 357 358 357 354 352 349 347 345 345 343 342 341 339 338 338 339 329 327 324 330 343 313 294 280 241 227 199 185 188 104 151 176 166 144 154 138 128 128 130 145 138 134 314 137 318 149 270 190 101 217 241 157 215 189 51 244 327 342 322 320 10 348 319 310 338 329 343 280 206 220 353 347 61 97 115 130 139 145
350 351 350 350 349 348 350 350 349 350 351 354 354 354 351 347 344 344 344 344 342 344 342 339 339 338 331 328 325 347 338 313 273 268 314 229 240 223 177 167 158 171 184 156 175 151 152 155 152 135 41 117 343 150 227 126 214 151 214 215 230 118 137 228 246 295 241 293 315 328 331 323 309 259 313 298 318 270 299 234 212 222 157 130 132 141 143 149
350 349 350 349 348 349 348 349 347 346 347 349 349 351 349 348 345 345 346 344 340 343 343 338 338 337 331 327 331 337 330 286 34 39 237 262 263 195 170 166 156 174 122 83 122 108 79 110 132 137 112 139 123 227 170 152 208 144 222 230 116 161 226 139 214 261 292 239 304 317 310 306 25 325 284 335 315 297 275 236 208 197 169 144 147 148 150 152
348 349 348 349 348 348 348 347 347 344 344 343 347 347 349 348 346 346 343 342 341 342 341 339 339 336 331 328 335 351 339 255 132 246 284 310 305 152 160 165 163 164 159 127 96 99 131 137 137 51 116 140 131 132 237 169 304 142 237 40 122 91 288 108 290 283 269 322 308 302 315 317 317 244 270 298 287 300 332 251 216 192 161 155 155 153 151 150
348 348 348 346 346 347 346 346 345 343 342 343 345 345 346 345 345 341 341 342 341 341 340 340 339 339 333 335 326 123 293 11 10 322 330 315 132 139 149 155 159 134 135 124 113 132 122 119 150 150 146 152 166 173 160 192 164 226 242 261 205 242 272 269 270 272 38 310 300 303 311 317 302 306 278 234 242 268 184 167 218 187 160 152 153 152 152 150
346 345 346 346 346 345 345 343 343 343 341 343 341 340 341 340 338 339 338 339 339 339 341 339 341 340 342 346 113 327 90 282 336 304 353 97 129 131 133 139 137 142 134 115 132 139 147 135 151 150 136 85 126 131 149 180 212 251 251 76 291 147 226 232 263 280 293 252 272 294 300 282 302 318 92 295 260 258 262 255 209 163 148 144 153 158 157 156
344 344 344 345 347 346 343 343 343 339 343 341 338 336 336 334 334 333 335 335 335 338 339 338 340 346 352 1 330 328 137 253 265 323 16 115 128 124 119 111 129 135 149 148 147 135 144 150 168 137 153 173 158 177 151 157 190 223 250 48 261 226 235 257 266 276 268 257 267 267 274 275 222 275 320 280 282 65 216 165 143 137 142 146 152 155 152 149
343 343 342 345 346 346 343 341 340 341 337 338 336 333 331 329 328 328 327 329 332 331 337 335 336 348 45 71 100 323 267 239 241 326 119 115 117 111 132 128 165 147 119 135 180 152 156 202 143 205 185 183 164 177 147 178 218 228 247 264 276 269 268 255 273 263 261 278 202 237 263 276 301 274 246 257 312 48 115 125 128 135 143 149 151 160 144 125
341 341 342 342 344 344 342 339 338 337 335 332 333 331 325 326 323 322 321 322 323 327 330 334 342 342 19 34 107 346 268 214 45 85 111 116 112 116 62 119 146 132 135 129 132 164 189 175 178 189 131 68 156 167 156 207 218 182 230 240 258 273 322 284 245 278 286 250 174 248 276 309 14 321 289 87 54 125 117 121 132 140 145 150 156 137 135 146
338 339 341 342 341 342 340 338 336 335 333 332 330 327 325 321 320 316 316 314 317 317 324 321 2 350 71 354 110 258 200 112 93 135 128 127 136 138 134 152 160 141 115 131 177 204 112 164 185 125 253 176 165 150 190 190 340 216 237 265 249 267 258 245 276 265 303 285 191 210 261 25 292 248 259 30 97 142 126 132 137 141 148 134 132 142 146 136
337 338 341 340 340 341 340 338 335 334 331 329 326 325 323 320 316 314 310 308 302 310 319 291 48 7 205 133 210 227 163 97 131 128 146 147 155 159 157 165 177 160 156 162 203 201 176 143 150 181 117 147 158 121 230 212 212 256 305 281 308 325 303 143 233 293 114 258 181 184 260 231 143 239 264 356 142 156 135 139 144 147 141 127 137 144 147 146
336 337 339 339 338 339 338 336 335 332 331 326 324 323 320 317 314 310 305 300 295 291 303 284 148 230 292 285 227 222 96 137 117 94 167 18 27 145 163 179 187 181 168 153 186 211 175 145 174 177 130 202 148 264 111 150 253 318 146 279 294 323 299 76 268 264 232 258 102 169 267 179 196 244 301 308 170 155 147 146 147 153 133 135 136 148 153 147
336 337 337 337 338 337 337 336 332 331 327 324 323 323 322 317 313 308 300 286 281 245 225 210 104 174 131 245 271 241 233 185 13 292 234 208 340 299 140 176 161 102 4 94 141 158 153 181 185 189 109 198 139 177 211 23 356 239 47 167 345 315 288 226 336 322 280 65 228 200 254 281 268 282 321 332 198 171 156 156 152 157 141 145 142 151 164 175
337 336 336 335 336 336 334 334 333 329 326 323 323 324 321 318 315 309 299 289 249 197 147 84 93 135 126 268 265 275 201 107 237 235 159 176 202 218 191 136 154 168 217 141 108 124 123 143 159 177 195 106 289 258 63 341 36 358 240 229 113 242 166 321 77 290 14 40 24 203 257 282 311 314 336 244 189 195 169 160 161 164 143 153 149 156 164 176
335 336 334 334 335 333 333 332 331 329 326 323 325 322 321 315 317 343 55 109 122 148 129 126 139 167 14 284 80 87 112 172 227 242 191 191 179 205 126 139 120 118 145 219 42 90 117 152 166 187 222 219 246 50 13 225 135 26 251 256 276 163 318 284 96 18 136 281 50 342 307 328 256 187 320 198 196 197 184 168 168 175 157 163 164 163 168 169
333 333 333 332 331 331 331 331 332 330 327 325 325 325 320 310 27 82 112 114 105 107 148 105 132 181 303 79 269 257 234 228 304 129 111 200 179 148 121 116 140 133 180 82 99 148 90 163 60 112 17 226 82 107 220 249 236 198 28 246 43 276 75 251 321 124 17 12 355 42 312 271 281 278 337 229 210 208 205 183 176 181 169 173 171 173 173 175
331 332 332 331 330 330 330 331 331 330 327 328 326 326 316 306 79 97 98 102 101 129 65 127 175 284 247 34 230 189 35 311 280 105 81 178 167 146 142 136 103 125 137 95 77 170 244 156 294 181 138 134 182 183 204 221 205 205 195 232 225 185 213 297 279 107 333 108 316 225 258 268 276 277 243 252 217 215 215 190 183 183 183 175 183 185 179 182
331 330 331 330 329 329 330 330 330 329 328 328 327 323 325 148 344 159 106 174 171 118 242 174 163 181 261 220 289 295 237 227 268 187 137 133 160 145 85 80 128 132 146 168 127 194 102 118 108 158 200 186 191 199 206 121 152 134 137 244 263 277 227 211 242 297 315 320 316 304 293 298 291 289 257 238 234 225 224 174 184 189 196 186 192 196 197 194
329 330 329 329 328 328 328 327 327 326 329 328 339 348 179 214 233 221 179 304 226 234 279 180 222 332 323 236 263 265 254 42 256 63 103 136 132 168 94 126 89 82 135 197 128 215 188 171 189 198 203 150 169 192 199 174 137 113 138 235 263 272 264 207 243 263 236 277 265 273 270 255 271 274 278 284 288 236 229 191 189 193 197 197 198 202 203 201
328 328 327 326 326 327 325 325 325 325 328 313 300 269 252 130 52 299 302 242 228 254 255 232 196 213 226 78 58 28 31 330 38 289 160 156 130 147 173 157 149 179 171 92 132 113 172 207 218 198 137 171 187 185 121 109 348 210 250 260 274 235 281 104 279 262 45 226 264 213 257 262 262 273 277 55 230 234 218 203 200 197 198 202 204 202 203 204
327 327 326 325 325 325 324 324 326 329 347 284 236 264 15 256 25 356 342 304 289 233 232 247 308 262 352 326 28 14 53 314 271 237 179 187 151 185 148 181 158 199 92 140 109 151 196 210 207 165 175 84 80 136 165 173 169 163 229 259 271 264 291 261 258 286 248 197 257 239 270 274 276 273 306 254 240 240 225 204 199 193 196 204 210 208 198 197
326 325 324 325 325 326 325 324 333 46 27 38 4 289 239 43 337 328 82 279 273 262 231 219 241 258 279 239 219 163 202 206 251 142 191 183 142 217 142 166 187 133 126 172 189 152 204 230 216 180 143 128 76 119 147 112 146 193 191 225 254 45 325 284 193 61 157 216 296 283 288 283 280 296 269 254 247 273 329 284 223 204 200 202 204 203 203 201
325 325 323 325 327 327 322 328 16 152 60 331 273 232 322 322 350 353 152 261 313 299 204 213 210 250 228 198 185 174 176 213 164 238 155 171 164 145 151 181 143 157 195 184 199 202 190 355 138 140 173 160 160 153 148 194 224 200 226 236 257 230 229 231 290 326 276 246 237 264 271 268 252 289 244 180 253 283 270 234 227 220 216 212 209 203 203 204
324 324 323 325 329 326 323 332 60 326 314 292 242 257 283 308 343 348 196 293 205 265 87 123 187 233 227 42 140 180 200 9 219 139 172 169 123 145 190 97 144 201 198 170 138 204 226 183 125 130 145 177 131 159 199 181 242 231 215 224 240 229 236 225 13 322 311 290 127 252 261 249 151 266 255 282 312 290 289 231 217 213 212 213 208 206 208 210
323 322 325 326 328 331 316 236 16 327 310 261 147 75 323 320 337 285 166 61 316 284 240 324 180 125 147 115 152 208 128 222 221 200 170 192 156 144 101 162 195 210 165 155 181 232 227 139 176 159 163 180 195 201 198 189 237 245 252 196 218 226 227 119 162 157 259 245 100 312 312 280 292 271 261 296 294 274 275 242 228 212 215 212 210 206 205 200
324 320 322 327 328 339 348 234 3 310 270 186 89 339 331 317 273 170 246 0 326 251 111 352 200 113 219 168 170 179 182 204 22 158 176 192 176 272 162 162 98 35 116 130 79 222 143 146 168 132 159 165 174 223 192 186 193 230 251 167 196 195 207 203 198 214 251 345 271 165 234 265 286 272 219 299 293 272 243 237 235 221 218 218 218 214 213 207
320 319 319 322 325 334 303 301 318 297 254 70 355 330 311 310 139 18 251 66 260 246 49 184 264 118 294 141 182 212 35 311 246 180 282 119 124 15 228 174 190 163 155 153 213 116 154 168 176 168 173 177 209 219 151 179 184 237 166 173 174 198 202 161 194 202 251 294 276 167 142 239 242 241 143 337 310 307 13 60 289 260 241 232 226 222 217 208
319 317 317 317 320 314 291 260 265 250 232 349 334 317 319 270 200 132 127 97 251 53 149 130 266 130 54 117 211 248 319 320 19 30 144 139 327 146 203 190 172 135 168 183 214 124 266 189 197 171 168 204 209 180 162 178 202 253 127 106 79 102 116 189 191 198 181 221 264 181 180 261 270 266 275 71 268 311 347 353 353 316 283 259 239 228 217 198
316 315 315 316 317 313 335 226 231 232 296 324 316 313 287 181 198 233 40 237 342 99 16 278 163 329 70 174 231 226 241 293 342 49 142 169 173 35 18 99 132 138 177 309 300 179 30 336 166 154 197 210 199 168 165 185 178 92 132 127 103 75 97 87 60 179 176 229 253 120 189 236 284 246 257 298 37 340 330 338 0 354 295 286 288 275 105 116
314 310 310 313 295 312 316 262 254 260 265 299 299 277 202 44 173 82 155 251 353 321 300 25 10 4 4 354 317 13 233 232 14 146 148 176 155 43 140 90 63 93 84 237 248 326 315 68 169 220 158 53 159 138 266 275 74 221 114 163 133 120 109 156 116 191 232 255 87 182 206 196 235 227 76 40 4 347 334 321 324 341 359 153 65 91 97 105
312 309 304 300 272 263 228 254 156 161 357 325 316 62 170 204 6 175 199 316 236 11 9 322 270 343 323 343 232 241 174 156 183 167 164 184 170 173 184 178 160 147 206 192 228 79 243 231 243 290 230 185 166 210 119 165 188 196 181 205 225 155 155 188 186 206 214 246 90 98 151 175 235 297 23 2 359 358 357 334 304 318 132 116 85 85 104 110
314 308 301 284 263 237 238 249 284 304 321 317 4 57 110 104 218 237 286 344 152 13 319 245 306 318 309 313 300 306 231 181 156 181 138 72 181 183 26 133 174 141 207 174 211 186 245 202 280 246 277 208 184 219 162 186 183 175 189 179 178 190 142 223 178 341 307 274 87 235 143 262 330 60 32 7 7 28 39 56 81 83 87 97 103 101 103 108
311 311 301 272 248 232 241 243 255 283 294 312 132 80 52 104 233 92 348 326 315 344 302 330 318 301 194 298 18 318 134 12 180 162 169 140 177 189 199 70 166 151 75 111 197 185 234 227 213 159 219 159 196 216 212 232 160 191 143 179 209 173 184 195 198 227 241 277 72 85 174 216 211 80 7 38 39 46 62 77 91 102 102 109 115 115 118 128
315 305 276 289 249 241 229 225 200 190 1 21 68 100 155 227 235 179 45 310 301 303 301 317 286 323 308 321 313 333 339 106 26 145 164 147 180 191 186 193 221 103 91 173 208 106 224 259 286 200 2 157 182 198 116 104 117 144 160 37 169 227 142 248 273 257 244 205 180 162 251 1 30 125 66 44 61 59 73 87 94 96 114 118 123 134 141 160
320 334 357 249 231 241 199 202 192 188 251 82 112 108 185 209 47 157 74 234 319 326 315 314 116 311 326 305 301 352 332 308 45 144 71 193 137 188 175 160 181 187 157 197 137 187 100 241 320 292 129 206 186 137 196 169 228 158 167 199 213 39 138 91 106 61 70 332 243 70 274 192 165 115 62 63 72 75 77 75 83 93 111 118 118 138 145 131
324 320 173 249 249 143 165 168 172 157 110 95 102 218 210 257 221 163 308 313 318 330 353 2 346 13 353 326 315 339 340 317 75 221 180 135 214 190 170 211 157 181 219 166 206 255 223 242 310 151 215 219 350 268 117 276 118 113 210 203 81 175 25 158 231 81 206 243 252 140 241 307 206 180 90 63 72 77 79 87 86 84 76 79 94 108 119 121
321 312 273 341 2 126 145 156 146 115 78 96 175 288 263 109 174 258 332 293 129 55 35 191 289 1 6 335 309 342 327 284 0 343 162 177 206 117 144 177 182 195 204 212 229 172 184 278 250 240 327 80 341 164 103 75 312 247 335 136 196 168 204 41 127 227 203 223 259 167 329 261 242 105 118 61 61 60 69 82 82 80 73 71 87 100 98 99
275 280 88 1 99 136 144 153 187 94 49 115 260 322 198 266 292 222 214 129 154 95 210 238 253 8 16 325 272 274 305 346 10 212 155 220 206 169 243 147 192 201 111 163 199 130 301 224 262 192 171 7 25 218 208 169 138 100 138 146 12 260 187 173 193 11 265 244 128 204 205 272 172 66 71 70 42 33 78 78 81 78 67 57 55 69 100 100
249 113 52 34 119 124 139 175 6 58 71 185 191 232 105 264 247 251 227 244 316 184 252 301 170 299 307 277 303 307 307 283 257 301 227 181 199 124 238 324 348 82 58 211 199 157 167 196 247 75 262 290 177 330 264 174 181 158 195 183 161 53 320 12 67 249 257 192 200 225 237 189 82 60 60 50 24 31 82 103 94 91 90 83 73 70 58 65
263 102 85 81 137 133 160 26 60 55 104 334 251 275 174 275 322 268 285 193 237 231 245 192 232 262 293 330 309 153 297 286 269 224 248 177 212 175 286 169 207 97 123 126 190 193 126 186 214 321 288 258 322 350 228 222 290 292 203 196 190 149 165 186 207 92 252 224 193 182 237 88 79 62 71 47 106 163 134 141 110 109 106 96 88 89 87 57
56 118 101 105 134 164 316 50 39 318 66 187 353 177 292 346 297 292 300 24 208 256 71 251 235 251 225 231 260 289 277 276 259 272 245 210 305 322 111 6 193 161 170 169 195 183 183 131 136 203 239 338 23 100 54 334 129 98 259 299 14 23 132 201 228 173 159 99 45 21 268 103 0 108 87 121 125 102 120 145 147 95 107 111 99 78 85 80
61 90 20 132 149 279 70 62 283 81 227 277 315 257 217 262 253 319 345 342 297 195 265 209 227 202 233 227 230 239 222 271 206 266 338 253 212 268 324 313 190 119 109 62 53 137 148 87 154 298 336 279 266 265 137 100 199 160 80 53 350 208 240 278 273 165 170 126 181 138 233 96 83 94 99 111 96 80 70 79 93 79 74 72 66 52 47 71
96 115 92 73 228 314 50 230 45 299 294 316 34 290 244 265 238 292 233 278 217 344 217 260 292 219 296 184 248 279 26 314 193 279 131 11 90 31 333 319 201 149 85 157 193 167 188 230 185 128 154 58 182 195 152 144 103 52 31 28 340 313 164 119 110 335 178 190 275 191 229 140 92 103 110 101 83 70 61 45 50 66 55 58 58 54 44 43
108 68 55 7 11 309 272 175 155 189 343 324 340 343 348 303 220 255 267 277 289 250 298 238 263 350 269 287 267 261 257 238 296 0 95 129 351 323 358 1 193 113 66 136 84 92 70 97 174 177 173 176 170 197 207 194 147 322 80 1 35 17 72 178 195 167 228 137 172 212 155 60 121 101 105 99 90 74 66 72 67 58 57 57 54 48 45 48
131 127 305 57 10 49 90 25 32 142 124 246 20 356 176 315 334 293 187 255 239 262 238 289 298 160 337 327 272 276 337 55 249 340 335 50 357 355 357 332 346 112 95 82 73 96 109 91 40 178 230 220 138 92 60 347 296 175 348 23 2 356 332 266 46 165 221 151 191 36 71 132 125 117 99 72 81 88 76 67 63 63 64 67 65 60 57 51
91 103 158 165 58 17 69 348 132 137 153 171 61 338 338 324 284 301 167 234 144 238 280 79 9 8 346 341 324 305 25 283 6 127 359 343 312 281 321 315 327 59 136 88 73 80 40 81 47 69 52 41 333 289 335 310 99 50 18 1 7 7 351 285 204 226 105 125 206 129 162 133 102 67 74 94 87 85 77 73 72 70 70 71 74 71 62 55
111 225 115 15 144 152 133 131 81 109 81 295 352 348 322 337 1 6 308 207 319 179 230 135 55 46 266 292 299 292 346 357 25 12 323 21 278 39 11 321 11 329 317 72 82 117 133 113 264 63 61 50 48 85 103 89 74 76 55 31 24 14 31 57 5 342 325 232 220 148 157 122 63 55 54 52 68 83 81 77 72 76 77 73 67 63 59 55
59 118 117 315 159 247 139 8 178 131 137 241 179 26 314 345 348 281 237 315 9 36 355 53 356 346 341 289 207 133 4 310 37 27 19 345 15 353 78 319 358 353 346 80 45 101 112 61 158 89 99 44 34 52 111 112 109 70 48 42 37 46 58 63 57 34 2 22 123 133 104 85 59 54 54 58 70 82 83 79 70 62 60 64 65 62 60 57
169 141 163 10 65 100 331 109 128 131 124 327 45 4 255 302 319 349 153 174 3 359 12 63 351 346 348 30 220 64 30 1 333 333 351 325 21 5 128 173 298 308 338 9 72 280 229 150 144 179 101 33 17 43 71 118 124 84 52 39 36 53 61 44 42 21 54 90 99 113 107 88 50 61 78 77 79 81 72 67 64 61 56 58 61 58 50 50
147 96 151 133 82 345 6 18 56 55 114 353 52 7 310 277 299 336 295 213 164 4 19 46 5 342 39 5 55 87 4 311 264 281 200 185 56 173 344 39 47 322 318 340 15 8 51 125 145 143 130 128 24 21 67 99 100 92 47 22 11 18 36 16 32 356 343 130 131 116 109 103 108 92 78 72 72 70 68 62 61 60 59 58 59 55 50 46
115 65 97 106 98 341 13 71 50 120 68 231 259 300 275 311 290 328 297 292 215 229 200 140 170 33 303 356 323 322 325 286 272 262 250 261 5 81 54 235 119 246 290 324 335 51 100 138 154 156 175 157 51 353 6 307 88 89 19 348 332 333 74 111 52 28 5 301 145 154 84 109 122 113 93 68 68 66 65 59 62 64 61 60 60 61 55 50